Theta_e
354 355 351 345 327 325 317 319 325 323 324 331 332 328 327 330 324 319 344 348 349 351 355 355 361 362 363 365 366 366 364 365 365 363 362 362 361 361 360 360 360 360 359 359 358 358 357 357 356
354 352 346 333 321 316 317 323 322 326 331 334 333 332 329 326 334 337 341 348 351 352 355 356 361 363 364 365 366 366 363 364 363 363 362 361 361 361 360 360 361 359 359 359 358 358 357 356 354
354 349 332 327 322 316 317 323 327 330 333 331 330 335 331 329 337 339 346 349 350 352 355 359 363 365 364 364 364 365 363 363 362 363 362 361 361 360 359 360 359 360 359 359 359 359 357 357 356
349 340 335 324 317 322 322 328 330 330 332 333 333 328 335 341 339 345 350 350 349 351 354 362 364 363 363 363 363 362 362 363 363 362 361 360 360 359 360 360 359 362 359 357 358 358 357 356 355
347 340 324 320 318 323 328 331 332 328 329 331 332 326 330 341 347 348 349 349 348 351 356 359 365 364 363 363 364 363 362 362 362 362 361 360 359 359 359 359 360 361 361 358 356 356 356 356 354
333 335 320 317 317 323 330 332 332 330 331 331 329 329 332 345 344 347 349 350 351 351 355 357 362 363 363 363 363 363 362 361 361 361 361 360 359 359 358 358 359 360 360 358 356 356 356 355 356
328 326 319 317 318 321 328 334 330 330 330 329 333 327 334 339 345 348 349 351 351 353 355 357 357 361 361 362 362 362 361 361 361 360 361 360 359 358 358 358 358 358 357 357 356 355 356 355 357
331 327 318 320 318 320 331 332 334 331 328 336 336 326 327 339 345 346 348 349 351 353 356 357 358 359 360 360 360 360 361 361 361 360 359 359 358 358 358 359 357 359 357 356 356 355 355 356 358
336 323 319 318 319 323 333 329 334 336 332 333 335 334 338 343 345 344 345 346 350 351 353 355 355 359 360 360 359 360 361 360 361 360 359 359 364 362 359 358 359 357 356 356 355 356 354 357 358
331 323 320 325 324 325 332 332 331 330 329 329 333 337 341 342 342 340 341 341 344 347 350 353 353 354 358 355 360 361 359 358 360 361 363 363 363 363 359 358 360 357 356 357 356 355 353 354 360
330 324 326 325 326 330 332 331 334 330 326 330 331 335 338 339 340 340 341 342 343 346 348 350 354 356 356 356 357 358 356 358 360 363 362 361 361 362 361 362 361 364 358 360 360 361 358 356 360
324 329 329 328 327 328 330 334 330 331 328 334 337 338 338 338 339 339 340 341 343 346 348 351 354 357 357 356 355 356 354 356 356 357 361 358 355 359 361 360 362 363 363 362 363 361 361 361 360
327 326 326 329 327 327 333 331 332 331 333 337 339 337 337 338 339 340 341 342 344 345 348 352 355 357 358 359 357 356 356 353 354 357 357 355 354 359 361 359 360 362 361 365 364 363 360 360 360
323 324 322 324 322 328 328 329 332 333 336 336 336 335 337 337 339 341 342 342 344 347 348 352 354 357 358 359 360 357 356 355 356 355 354 357 354 359 360 361 360 361 363 362 365 363 359 362 358
315 310 312 316 319 321 330 325 327 334 336 334 334 335 336 338 340 341 344 345 346 347 350 351 354 356 358 359 359 357 354 354 352 353 357 356 357 359 362 360 360 361 363 364 366 362 362 354 352
308 309 306 312 318 322 327 315 328 335 333 331 332 334 336 338 340 343 345 347 348 347 349 352 352 354 356 357 357 355 353 353 352 352 353 356 359 363 362 359 360 363 364 367 359 358 355 349 340
305 304 304 308 318 322 324 316 325 334 333 331 332 333 335 337 340 343 345 347 349 350 350 350 353 352 354 357 357 356 355 352 351 352 353 357 360 362 361 359 360 363 363 365 361 359 356 349 345
301 302 305 306 312 318 321 319 321 332 333 332 332 333 334 335 337 342 345 347 350 352 353 352 352 355 356 355 356 353 351 350 352 353 355 359 362 363 363 359 360 361 358 362 360 358 348 346 346
304 304 305 309 311 311 313 317 320 327 331 332 332 332 333 334 339 343 345 347 349 351 352 353 353 357 354 352 349 349 346 350 353 357 361 362 363 364 364 360 358 360 359 360 360 355 349 344 346
303 302 304 308 308 308 310 311 316 325 328 331 333 333 333 335 338 341 344 346 348 350 352 354 355 357 355 353 354 352 353 352 356 359 361 362 362 364 363 363 360 361 358 359 357 353 347 345 346
302 301 304 304 306 308 309 308 314 325 329 332 334 336 336 336 336 339 342 344 347 348 351 354 357 358 357 358 355 355 355 356 354 355 357 360 361 363 363 360 358 362 360 355 358 354 349 344 345
300 305 304 303 303 301 310 302 311 319 325 328 331 334 335 337 339 340 341 344 346 349 351 354 356 358 357 359 355 356 349 348 351 354 357 358 362 362 363 363 362 363 359 359 357 353 349 344 339
302 306 305 305 304 303 304 302 308 318 320 325 329 332 335 337 339 339 341 344 347 349 349 352 356 358 359 359 359 354 353 352 354 355 360 363 364 363 362 363 363 361 359 361 359 352 348 343 341
308 305 304 303 303 296 303 302 305 310 319 324 329 332 333 336 338 341 343 345 346 348 349 350 354 356 358 358 358 358 357 356 352 354 353 354 356 357 362 363 363 363 361 360 358 356 351 346 345
306 302 295 293 294 294 305 301 304 312 319 321 327 331 333 335 336 339 340 341 346 347 349 351 354 354 357 357 358 358 358 359 358 358 353 355 352 354 359 363 362 360 362 360 359 355 351 349 345
303 302 296 290 292 295 302 298 304 313 316 322 326 331 334 335 337 337 341 341 342 347 350 352 352 353 355 356 357 359 360 356 356 357 354 353 353 354 363 362 363 362 361 359 357 352 349 350 348
302 299 305 298 296 295 299 304 309 312 313 319 323 327 331 334 336 337 339 342 342 345 349 351 352 353 355 355 357 357 359 358 357 360 361 355 361 356 360 361 362 362 361 359 357 352 350 348 349
304 306 297 299 291 290 296 299 302 309 312 315 320 323 327 332 335 337 340 343 344 344 348 351 352 353 354 355 356 356 357 358 359 360 359 360 361 360 359 360 362 361 360 359 356 353 351 348 346
300 301 302 301 299 293 292 297 309 312 316 315 317 321 325 327 331 334 339 343 345 345 345 348 350 352 353 354 356 356 356 358 359 358 359 361 362 362 361 360 360 360 358 358 355 354 350 347 347
305 303 302 297 296 298 298 298 309 313 316 318 319 322 324 328 330 332 335 339 340 344 344 345 348 349 352 353 355 356 357 358 358 358 359 361 360 363 363 362 360 359 358 358 355 352 349 347 346
Wind_Speed
14 12 4 3 3 3 2 3 2 7 5 2 5 2 6 6 3 5 7 12 17 16 12 14 15 17 18 17 17 17 17 16 15 14 13 13 12 11 10 9 10 10 9 9 9 9 7 6 7
11 10 2 2 2 2 3 2 8 6 6 11 10 7 4 5 4 11 9 17 17 15 12 14 15 16 17 16 16 16 16 16 15 14 13 11 10 10 9 9 9 8 8 8 8 8 7 5 5
13 3 3 2 1 3 3 3 8 11 9 5 5 7 3 5 10 12 14 19 16 14 13 14 15 16 16 16 15 15 15 15 14 13 11 10 9 9 8 9 7 6 9 8 8 7 6 6 5
6 3 3 2 4 2 2 7 14 12 7 4 10 8 6 2 15 10 19 18 16 15 14 15 15 16 15 15 15 15 14 13 12 11 10 9 8 8 7 6 4 8 9 7 6 6 5 4 3
2 2 2 2 2 1 2 9 12 9 6 7 4 6 8 7 11 20 19 17 17 16 13 15 14 14 14 14 14 14 12 12 11 9 8 7 7 6 6 5 6 8 8 7 5 5 4 3 2
3 1 2 2 3 2 4 12 11 7 7 9 11 13 6 10 20 18 18 16 16 16 15 14 14 14 13 13 12 12 11 10 9 8 7 6 6 5 4 4 5 6 6 5 4 4 4 3 5
4 3 1 2 3 1 6 12 7 8 10 6 16 10 6 13 19 18 17 15 15 15 14 13 13 13 13 12 11 10 9 8 7 6 5 5 4 3 3 4 4 4 4 3 2 2 3 3 5
3 3 2 1 2 3 10 8 9 8 6 14 13 7 11 18 20 17 16 16 15 14 13 13 12 12 10 10 10 9 8 7 5 4 3 3 2 1 2 2 1 3 1 1 1 1 2 2 5
2 3 2 1 4 3 13 7 9 8 14 5 7 8 15 23 21 19 17 16 14 12 13 13 13 11 10 8 8 8 8 6 5 4 3 4 1 1 1 3 4 1 2 2 2 3 4 3 5
5 3 3 4 3 4 13 11 13 7 15 6 6 13 22 24 22 21 19 18 18 16 15 13 13 12 11 8 7 7 5 5 4 3 3 2 1 3 4 4 6 3 2 2 3 3 3 2 2
4 4 4 3 3 6 12 9 10 11 13 13 18 22 25 23 22 21 20 19 19 17 13 15 13 12 11 8 6 4 4 4 4 5 4 3 3 2 2 2 2 2 1 2 2 2 0 1 1
5 9 7 4 4 2 12 10 9 13 4 14 17 25 27 25 23 23 21 20 19 17 16 16 15 12 11 7 7 6 5 5 4 4 5 3 3 2 3 2 2 2 2 2 1 2 0 1 1
13 7 4 11 12 7 11 15 12 14 2 15 21 25 24 23 23 20 19 18 17 17 17 16 15 13 11 10 7 7 6 6 5 5 5 4 4 3 3 3 4 3 2 3 1 2 1 2 1
6 9 9 10 13 8 12 11 11 11 12 17 22 26 23 24 25 20 19 19 19 17 17 16 16 14 12 11 10 7 7 6 6 5 6 6 5 3 3 3 3 3 2 3 3 2 1 0 0
9 13 8 12 10 8 9 7 15 10 17 19 22 23 23 23 21 21 20 19 18 16 16 16 16 15 14 13 11 8 7 7 7 6 7 7 6 5 5 4 3 3 3 3 2 2 2 3 2
4 5 8 3 9 8 15 11 17 18 19 20 22 22 22 23 23 21 18 19 18 17 17 16 14 16 15 13 10 8 8 7 7 7 6 8 8 7 5 4 3 2 4 2 1 2 1 2 3
5 9 10 8 10 5 16 9 11 22 21 21 22 23 22 21 22 21 21 20 19 18 17 17 16 17 16 13 10 9 9 8 7 7 7 9 9 9 6 5 4 3 4 2 2 2 2 2 2
11 9 8 9 9 10 17 16 1 19 21 22 22 22 22 22 26 23 22 20 19 18 17 17 15 16 15 11 9 8 8 8 7 7 8 10 8 10 8 4 5 4 4 3 3 1 3 2 2
8 12 10 9 5 9 14 14 11 16 22 21 21 22 22 25 23 20 20 20 18 18 18 18 18 16 13 11 11 10 10 9 8 8 9 9 9 9 9 6 5 5 5 3 2 2 3 2 2
18 17 17 10 7 4 6 10 6 16 23 24 23 23 24 21 20 21 21 21 21 20 20 18 18 17 15 11 10 8 9 9 9 8 7 8 9 9 8 8 7 6 4 4 4 4 2 2 2
23 24 17 8 2 4 5 13 7 12 14 18 21 22 20 23 24 23 23 24 22 22 21 19 18 17 15 14 9 8 6 6 7 8 8 8 9 8 9 7 7 6 5 5 4 5 4 1 2
23 17 16 16 9 11 6 14 7 11 17 18 19 21 23 23 23 22 24 24 24 22 20 19 18 17 16 16 13 15 12 12 11 10 9 9 10 9 9 9 9 7 6 6 5 4 3 3 4
19 14 15 15 13 12 13 9 13 5 12 19 22 24 25 25 25 26 26 26 25 22 21 19 18 18 17 17 16 14 14 11 9 9 10 10 9 11 10 9 9 9 7 7 5 6 5 4 3
11 13 8 4 9 16 20 14 16 13 16 16 21 22 23 24 25 24 24 22 21 20 19 18 19 18 18 17 18 17 16 13 11 10 10 10 10 10 11 10 9 9 8 8 7 7 8 6 4
20 18 8 11 13 15 15 15 19 9 17 19 20 25 26 26 24 24 23 23 21 22 22 19 19 19 19 20 19 20 19 17 15 13 12 11 9 10 11 11 9 9 10 9 7 8 8 8 7
27 22 9 15 14 12 7 16 14 17 18 19 17 21 22 22 22 24 23 21 21 23 22 22 21 21 20 20 20 18 18 13 13 13 12 11 11 11 11 11 11 12 11 9 8 7 7 7 7
17 27 22 10 2 5 13 14 10 9 20 16 20 17 19 24 25 28 27 24 22 21 22 23 22 20 21 21 18 18 17 18 15 16 13 11 11 10 12 12 12 12 12 12 10 8 9 8 8
16 18 12 14 14 12 9 12 13 20 18 20 18 18 20 21 23 24 24 24 23 22 22 22 22 22 22 22 19 17 19 19 18 14 15 14 12 13 12 12 12 12 13 12 12 10 10 10 8
11 20 11 11 10 9 8 9 10 16 20 21 22 21 19 20 22 23 22 22 23 21 20 23 22 23 21 20 20 19 18 19 17 16 16 15 14 14 14 14 13 14 14 14 12 12 11 12 11
24 18 23 12 13 13 6 7 2 11 11 16 20 18 18 20 21 21 22 21 20 22 21 23 22 22 23 21 20 21 19 19 19 19 18 16 16 15 15 15 15 15 15 15 15 15 13 14 14
Wind_Direction
155 153 151 190 188 241 125 122 120 132 142 48 116 186 112 53 39 116 129 122 136 142 144 132 135 130 128 121 119 118 123 124 124 124 124 121 115 110 106 90 79 76 95 85 87 95 107 120 126
152 148 173 176 261 125 86 118 146 128 120 116 98 103 58 79 82 120 122 139 142 138 141 138 138 130 125 122 122 124 127 126 126 127 125 119 117 111 100 88 79 79 76 85 87 88 91 87 105
155 172 237 198 119 37 81 134 135 121 138 138 106 66 69 92 122 129 140 144 144 142 144 140 133 129 129 126 128 128 130 132 132 126 123 124 118 108 98 87 82 77 71 62 80 89 88 84 87
164 183 221 256 32 93 349 152 145 138 114 84 117 88 88 74 140 140 143 146 145 147 151 137 136 135 134 133 134 132 133 137 128 126 130 127 119 108 95 85 68 71 81 80 87 91 84 81 90
214 226 245 225 71 42 316 160 152 144 122 137 143 115 110 119 122 140 143 151 149 149 154 148 141 140 140 141 137 135 139 134 132 136 132 119 113 104 92 71 44 50 76 81 87 100 95 86 81
214 244 260 20 25 13 112 152 148 140 135 128 115 121 94 124 140 145 146 152 152 150 155 151 147 147 149 145 140 142 139 140 141 139 129 125 106 88 71 58 39 38 69 85 99 97 93 67 48
261 215 349 317 308 207 139 152 167 138 142 134 135 118 110 152 147 148 150 152 155 153 156 160 160 157 155 151 152 149 144 146 142 144 136 118 96 82 54 40 27 33 62 78 93 109 93 86 60
243 271 266 133 308 94 140 147 147 144 143 128 149 159 162 163 155 152 153 156 160 161 164 165 168 166 167 164 165 162 162 156 155 161 148 130 126 57 51 10 7 321 124 121 32 38 43 55 88
158 247 246 232 216 131 157 143 152 127 143 167 177 150 144 153 155 157 159 162 164 172 175 174 173 175 172 173 171 175 176 171 179 185 180 187 77 337 352 8 326 1 176 138 120 73 13 24 87
222 235 207 227 224 189 178 168 146 146 157 165 121 126 140 155 163 166 170 170 176 177 181 181 183 182 179 183 183 184 184 190 193 193 222 248 305 315 327 321 335 52 65 121 144 86 18 355 38
180 235 223 264 44 179 173 175 163 146 183 184 171 152 154 163 172 174 178 179 180 182 183 187 187 187 187 189 190 192 194 201 200 216 232 256 278 273 314 318 309 322 38 154 128 144 11 115 20
229 236 244 282 305 216 177 172 194 187 165 185 167 162 160 171 177 179 179 181 183 187 190 188 190 190 193 194 197 198 204 207 213 214 232 243 257 286 301 311 288 280 315 328 181 139 149 294 168
228 263 263 253 280 265 201 193 188 210 183 147 154 165 172 174 179 184 182 182 185 191 193 193 190 193 195 201 201 211 214 212 218 222 225 240 252 262 289 325 299 282 300 276 205 164 188 200 187
183 226 267 267 263 219 201 202 189 199 144 145 158 171 177 182 184 182 185 189 191 194 196 194 195 195 197 205 206 212 217 218 223 230 234 233 252 261 280 292 276 265 291 287 252 156 195 113 62
251 276 286 250 227 219 194 192 221 150 156 158 167 177 180 190 189 194 191 195 193 198 196 196 196 196 201 206 209 214 219 220 229 232 235 239 237 244 267 292 283 257 267 254 244 345 121 162 141
223 219 243 189 210 189 184 236 216 170 164 169 173 178 187 192 196 200 200 201 195 198 198 198 198 198 202 207 208 214 219 224 231 237 238 228 231 235 239 251 260 273 276 242 142 290 29 64 78
211 235 227 246 204 159 196 243 235 178 179 179 180 183 189 192 201 201 204 205 200 198 197 200 200 203 203 206 210 216 220 228 232 240 241 238 230 229 234 236 250 253 267 254 203 183 343 67 61
211 213 227 238 185 204 209 241 128 186 193 189 185 187 190 196 203 201 204 206 204 200 197 198 201 205 202 202 208 215 220 232 233 235 239 238 230 227 225 227 236 242 246 223 164 124 97 79 48
234 234 238 246 212 217 223 234 240 195 202 202 190 190 196 204 200 201 205 208 207 204 201 199 199 200 197 201 203 208 214 219 226 231 241 228 222 218 211 216 211 226 245 213 146 147 162 132 98
226 237 235 248 258 264 228 245 243 201 207 204 195 195 201 199 200 200 203 207 206 205 204 200 201 195 197 199 202 207 206 218 222 225 226 219 215 209 207 211 211 208 225 204 186 194 161 135 112
223 226 222 245 336 230 267 260 220 212 219 207 210 205 204 200 199 199 203 205 207 206 203 201 199 198 197 200 195 201 202 218 210 221 228 219 223 215 215 201 206 201 218 226 204 199 201 170 140
224 222 236 242 251 247 214 266 223 212 207 209 210 206 207 203 205 205 201 209 208 209 203 201 199 201 199 192 197 202 206 209 215 213 217 220 222 221 218 216 212 209 213 220 205 191 196 191 192
222 199 212 232 239 258 223 252 242 199 214 213 213 211 212 206 203 205 205 207 210 207 206 200 195 198 200 195 203 201 215 217 216 215 217 221 221 224 222 216 206 203 213 218 205 184 195 192 221
189 185 162 195 234 240 238 233 246 212 210 217 217 217 214 211 211 210 210 210 213 211 208 205 201 201 197 199 203 204 211 216 215 215 216 224 225 216 215 210 208 207 208 215 205 198 196 199 212
195 173 176 214 215 238 221 228 242 238 213 217 209 215 215 208 210 211 210 205 207 204 202 201 198 205 199 199 201 206 210 210 212 211 216 216 215 209 207 201 199 203 205 210 205 193 198 196 202
200 199 208 214 230 235 189 234 232 222 229 228 231 219 213 210 210 212 211 207 205 205 203 199 197 203 202 202 205 206 209 212 215 215 221 217 218 211 206 201 202 206 200 202 200 197 207 202 207
182 210 209 247 131 248 222 245 260 232 219 214 217 214 210 209 210 211 210 210 205 205 203 201 200 201 200 203 204 205 205 210 211 213 210 214 217 215 210 202 203 205 201 196 194 204 199 201 204
191 170 178 212 226 233 207 240 240 192 205 215 212 210 214 213 214 216 214 211 211 206 204 202 201 200 200 201 202 205 205 207 210 207 211 212 211 216 206 204 202 203 203 199 197 203 199 198 201
181 191 203 205 225 228 243 237 208 213 209 204 211 215 212 210 215 215 213 212 212 210 203 203 200 199 200 201 202 204 205 206 208 209 210 209 205 205 207 205 204 205 203 201 202 207 200 203 205
200 191 197 204 194 228 278 248 263 230 222 223 221 218 218 213 213 211 214 212 210 209 205 202 202 201 202 199 201 203 205 203 205 207 207 204 206 204 205 202 207 208 206 203 205 208 208 208 209